TimeEDT,TemperatureF,Dew PointF,Humidity,Sea Level PressureIn,VisibilityMPH,Wind Direction,Wind SpeedMPH,Gust SpeedMPH,PrecipitationIn,Events,Conditions,WindDirDegrees,DateUTC
12:53 AM,73.0,55.0,53,29.87,10.0,SW,6.9,-,N/A,,Clear,230,2013-05-16 04:53:00
1:53 AM,72.0,55.9,57,29.86,10.0,Variable,4.6,-,N/A,,Partly Cloudy,0,2013-05-16 05:53:00
2:53 AM,70.0,57.0,63,29.86,10.0,SW,3.5,-,N/A,,Clear,230,2013-05-16 06:53:00
3:53 AM,70.0,57.0,63,29.86,10.0,Calm,Calm,-,N/A,,Clear,0,2013-05-16 07:53:00
4:53 AM,64.9,59.0,81,29.86,10.0,Calm,Calm,-,N/A,,Overcast,0,2013-05-16 08:53:00
5:53 AM,64.9,59.0,81,29.88,10.0,Calm,Calm,-,N/A,,Mostly Cloudy,0,2013-05-16 09:53:00
6:53 AM,63.0,57.9,84,29.89,10.0,Calm,Calm,-,N/A,,Scattered Clouds,0,2013-05-16 10:53:00
7:53 AM,66.0,62.1,87,29.91,10.0,Calm,Calm,-,N/A,,Mostly Cloudy,0,2013-05-16 11:53:00
8:53 AM,68.0,59.0,73,29.92,10.0,Calm,Calm,-,N/A,,Scattered Clouds,0,2013-05-16 12:53:00
9:53 AM,70.0,59.0,68,29.92,10.0,WSW,3.5,-,0.00,,Scattered Clouds,250,2013-05-16 13:53:00
10:53 AM,69.1,62.1,78,29.93,7.0,Calm,Calm,-,0.01,Rain,Light Rain,0,2013-05-16 14:53:00
11:53 AM,73.9,64.0,71,29.94,10.0,WNW,5.8,-,0.00,,Scattered Clouds,290,2013-05-16 15:53:00
12:53 PM,75.9,64.0,67,29.94,10.0,Calm,Calm,-,N/A,,Scattered Clouds,0,2013-05-16 16:53:00
1:53 PM,77.0,64.9,66,29.92,10.0,Variable,4.6,-,N/A,,Scattered Clouds,0,2013-05-16 17:53:00
2:53 PM,73.9,64.9,73,29.95,9.0,SSW,9.2,-,N/A,,Mostly Cloudy,210,2013-05-16 18:53:00
3:35 PM,73.4,64.4,73,29.96,10.0,SSW,8.1,-,N/A,Thunderstorm,Overcast,210,2013-05-16 19:35:00
3:53 PM,73.0,64.9,76,29.95,9.0,SSW,5.8,-,N/A,Thunderstorm,Overcast,200,2013-05-16 19:53:00
4:53 PM,68.0,64.9,90,29.95,8.0,NE,3.5,-,0.06,Rain,Light Rain,50,2013-05-16 20:53:00
5:53 PM,73.9,68.0,82,29.95,9.0,SSW,4.6,-,0.00,,Mostly Cloudy,210,2013-05-16 21:53:00
6:53 PM,73.0,64.0,73,29.94,10.0,SW,4.6,-,N/A,,Partly Cloudy,230,2013-05-16 22:53:00
7:53 PM,71.1,63.0,75,29.94,10.0,SW,6.9,-,N/A,,Clear,220,2013-05-16 23:53:00
8:53 PM,66.9,63.0,87,29.95,10.0,SSW,3.5,-,N/A,,Clear,200,2013-05-17 00:53:00
9:53 PM,63.0,61.0,93,29.99,7.0,Calm,Calm,-,N/A,,Clear,0,2013-05-17 01:53:00
10:53 PM,62.1,61.0,96,30.00,6.0,Calm,Calm,-,N/A,,Clear,0,2013-05-17 02:53:00
11:53 PM,62.1,60.1,93,30.00,3.0,Calm,Calm,-,N/A,,Partly Cloudy,0,2013-05-17 03:53:00